sat.trackr.live / text

‹ back to catalog

STARLINK-32674

NORAD 62434 · 2024-251C

PAYLOAD ACTIVE UNKNOWN

§ Identity

Operator
Country
US
Launch date
2024-12-29
Launch site
AFWTR
Launch vehicle
Mass (kg)
RCS (m²)

Purposes: comms

External: N2YO · Heavens-Above · Gunter

§ Orbital elements

Epoch: 2026-05-24T22:04:15.896352Z

Period
94.11 min
Inclination
53.1594°
Eccentricity
0.0000912
Mean motion
15.30191657 rev/d
Perigee alt
474.6 km
Apogee alt
475.9 km
Semi-major
6,853.4 km
B*
2.4802e-4
RAAN
340.9374°
Arg perigee
79.0992°
Mean anomaly
281.0111°
Rev number
7,962

§ Raw data

STARLINK-326741 62434U 24251C   26144.91962843  .00006992  00000+0  24802-3 0  99962 62434  53.1594 340.9374 0000912  79.0992 281.0111 15.30191657 79622

JSON: /api/v1/satellites/62434 · /tle

For live sub-satellite position, see the globe view (requires WebGL).

§ Visibility from observer

Set your observer location to see the next 7 days of passes ≥ 10°. The values pass through the URL so the page stays shareable.

No JS? Fill the form by hand. The geolocation button needs JavaScript.